Jonestown, MS

2:45 AM CST on February 09, 2016 (GMT -0600)
Fletcher

Weather History for KCKM - April, 2014

Change the Weather History Date:

Thursday, April 24, 2014

  Actual Average (KMEM) Record (KMEM)
Temperature  
Mean Temperature 66 °F 66 °F  
Max Temperature 82 °F 75 °F 88 °F (1965)
Min Temperature 51 °F 56 °F 32 °F (1910)
Degree Days  
Heating Degree Days 0 3  
Month to date heating degree days 124  
Since 1 July heating degree days 2932  
Cooling Degree Days 2 3  
Month to date cooling degree days 54  
Year to date cooling degree days 74  
Growing Degree Days 16 (Base 50)    
Moisture  
Dew Point 55 °F    
Average Humidity 68    
Maximum Humidity 100    
Minimum Humidity 39    
Precipitation  
Precipitation 0.26 in 0.19 in 2.94 in (2010)
Month to date precipitation 4.39  
Year to date precipitation 17.92  
Snow  
Snow 0.00 in 0.00 in - ()
Month to date snowfall 0.0  
Since 1 July snowfall 3.8  
Snow Depth -    
Sea Level Pressure  
Sea Level Pressure 29.85 in    
Wind  
Wind Speed 7 mph (South)    
Max Wind Speed 24 mph    
Max Gust Speed 43 mph    
Visibility 10 miles    
Events      
T = Trace of Precipitation, MM = Missing Value Source: NWS Daily Summary

Daily Weather History Graph

Daily Weather History Graph

Search for Another Location

Airport or City:

Trip Planner

Search our weather history database for the weather conditions in past years. The results will help you decide how hot, cold, wet, or windy it might be!

Date:

Astronomy

Apr. 24, 2014 Rise Set
Actual Time 6:19 AM CDT 7:40 PM CDT
Civil Twilight 5:53 AM CDT 8:07 PM CDT
Nautical Twilight 5:22 AM CDT 8:38 PM CDT
Astronomical Twilight 4:49 AM CDT 9:11 PM CDT
Moon 3:17 AM CDT (4/24) 3:08 PM CDT (4/24)
Length of Visible Light 14h 13m
Length of Day
13h 20m
Waning Crescent, 24% of the Moon is Illuminated
Apr 24
Waning Crescent
Apr 29
New
May 6
First Quarter
May 14
Full
May 21
Last Quarter

Hourly Weather History & Observations

Time (CDT) Temp. Heat Index Dew Point Humidity Pressure Visibility Wind Dir Wind Speed Gust Speed Precip Events Conditions
12:15 AM 55.4 °F - 48.2 °F 77% 29.94 in 10.0 mi Calm Calm - N/A   Unknown
12:35 AM 57.2 °F - 46.4 °F 67% 29.93 in 10.0 mi Calm Calm - N/A   Unknown
12:55 AM 57.2 °F - 46.4 °F 67% 29.93 in 10.0 mi Calm Calm - N/A   Unknown
1:15 AM 55.4 °F - 46.4 °F 72% 29.92 in 10.0 mi Calm Calm - N/A   Unknown
1:55 AM 55.4 °F - 46.4 °F 72% 29.90 in 10.0 mi SE 4.6 mph - N/A   Unknown
2:15 AM 57.2 °F - 44.6 °F 63% 29.91 in 10.0 mi SE 4.6 mph - N/A   Unknown
2:35 AM 55.4 °F - 46.4 °F 72% 29.91 in 10.0 mi Calm Calm - N/A   Unknown
3:15 AM 55.4 °F - 46.4 °F 72% 29.90 in 10.0 mi East 8.1 mph - N/A   Unknown
3:55 AM 53.6 °F - 46.4 °F 77% 29.90 in 10.0 mi East 4.6 mph - N/A   Unknown
4:15 AM 53.6 °F - 46.4 °F 77% 29.91 in 10.0 mi Calm Calm - N/A   Unknown
4:35 AM 51.8 °F - 46.4 °F 82% 29.91 in 10.0 mi Calm Calm - N/A   Unknown
4:55 AM 53.6 °F - 46.4 °F 77% 29.91 in 10.0 mi Calm Calm - N/A   Unknown
5:15 AM 53.6 °F - 46.4 °F 77% 29.91 in 10.0 mi Calm Calm - N/A   Unknown
5:35 AM 53.6 °F - 44.6 °F 72% 29.91 in 10.0 mi Calm Calm - N/A   Unknown
5:55 AM 53.6 °F - 46.4 °F 77% 29.91 in 10.0 mi SE 4.6 mph - N/A   Unknown
6:15 AM 53.6 °F - 46.4 °F 77% 29.92 in 10.0 mi SE 4.6 mph - N/A   Unknown
6:35 AM 53.6 °F - 46.4 °F 77% 29.92 in 10.0 mi ESE 6.9 mph - N/A   Unknown
6:55 AM 55.4 °F - 48.2 °F 77% 29.92 in 10.0 mi Calm Calm - N/A   Unknown
7:15 AM 57.2 °F - 48.2 °F 72% 29.94 in 10.0 mi Calm Calm - N/A   Unknown
7:35 AM 57.2 °F - 48.2 °F 72% 29.94 in 10.0 mi Calm Calm - N/A   Unknown
7:55 AM 59.0 °F - 46.4 °F 63% 29.94 in 10.0 mi Calm Calm - N/A   Unknown
8:15 AM 60.8 °F - 48.2 °F 63% 29.94 in 10.0 mi SE 3.5 mph - N/A   Unknown
8:35 AM 62.6 °F - 48.2 °F 59% 29.93 in 10.0 mi SSE 8.1 mph - N/A   Unknown
8:55 AM 64.4 °F - 48.2 °F 56% 29.93 in 10.0 mi SSE 10.4 mph - N/A   Unknown
9:15 AM 66.2 °F - 50.0 °F 56% 29.92 in 10.0 mi SSE 10.4 mph - N/A   Unknown
9:55 AM 69.8 °F - 50.0 °F 49% 29.90 in 10.0 mi SSE 16.1 mph - N/A   Unknown
10:15 AM 71.6 °F - 50.0 °F 46% 29.90 in 10.0 mi South 13.8 mph - N/A   Unknown
10:35 AM 73.4 °F - 51.8 °F 47% 29.90 in 10.0 mi South 15.0 mph - N/A   Unknown
10:55 AM 73.4 °F - 51.8 °F 47% 29.90 in 10.0 mi South 11.5 mph - N/A   Unknown
11:15 AM 73.4 °F - 51.8 °F 47% 29.91 in 10.0 mi South 10.4 mph - N/A   Unknown
11:35 AM 75.2 °F - 53.6 °F 47% 29.91 in 10.0 mi South 9.2 mph - N/A   Unknown
11:55 AM 75.2 °F - 55.4 °F 50% 29.90 in 10.0 mi South 10.4 mph - N/A   Unknown
12:15 PM 77.0 °F - 57.2 °F 50% 29.89 in 10.0 mi South 9.2 mph - N/A   Unknown
12:35 PM 77.0 °F - 57.2 °F 50% 29.88 in 10.0 mi South 12.7 mph 19.6 mph N/A   Unknown
12:55 PM 80.6 °F 80.8 °F 57.2 °F 45% 29.87 in 10.0 mi SSW 13.8 mph - N/A   Unknown
1:15 PM 80.6 °F 80.8 °F 57.2 °F 45% 29.87 in 10.0 mi South 16.1 mph 20.7 mph N/A   Unknown
1:35 PM 80.6 °F 81.1 °F 59.0 °F 48% 29.87 in 10.0 mi South 13.8 mph 20.7 mph N/A   Unknown
1:55 PM 80.6 °F 81.1 °F 59.0 °F 48% 29.86 in 10.0 mi South 17.3 mph 24.2 mph N/A   Unknown
2:15 PM 82.4 °F 82.0 °F 57.2 °F 42% 29.84 in 10.0 mi South 16.1 mph 24.2 mph N/A   Unknown
2:35 PM 82.4 °F 81.7 °F 55.4 °F 39% 29.82 in 10.0 mi South 19.6 mph 26.5 mph N/A   Unknown
2:55 PM 82.4 °F 82.0 °F 57.2 °F 42% 29.79 in 10.0 mi SSE 17.3 mph 32.2 mph N/A   Unknown
3:15 PM 82.4 °F 81.7 °F 55.4 °F 39% 29.79 in 10.0 mi South 16.1 mph 26.5 mph N/A   Unknown
3:35 PM 82.4 °F 81.7 °F 55.4 °F 39% 29.78 in 10.0 mi South 15.0 mph 23.0 mph N/A   Unknown
3:55 PM 82.4 °F 82.0 °F 57.2 °F 42% 29.77 in 10.0 mi South 18.4 mph 26.5 mph N/A   Unknown
4:15 PM 80.6 °F 80.8 °F 57.2 °F 45% 29.74 in 10.0 mi SSE 20.7 mph 24.2 mph N/A   Unknown
4:35 PM 80.6 °F 80.5 °F 55.4 °F 42% 29.72 in 10.0 mi SSE 19.6 mph 24.2 mph N/A   Unknown
4:55 PM 78.8 °F - 57.2 °F 47% 29.75 in 10.0 mi South 20.7 mph 26.5 mph N/A   Unknown
5:15 PM 77.0 °F - 59.0 °F 54% 29.71 in 5.0 mi SSE 23.0 mph 29.9 mph N/A   Unknown
5:35 PM 73.4 °F - 60.8 °F 65% 29.67 in 9.0 mi SSE 20.7 mph 42.6 mph 0.01 in   Unknown
5:55 PM 75.2 °F - 60.8 °F 61% 29.69 in 10.0 mi SSE 24.2 mph 28.8 mph 0.01 in   Unknown
6:15 PM 73.4 °F - 62.6 °F 69% 29.71 in 10.0 mi SSW 11.5 mph - N/A   Unknown
6:35 PM 73.4 °F - 62.6 °F 69% 29.72 in 10.0 mi South 11.5 mph - N/A   Unknown
6:55 PM 69.8 °F - 64.4 °F 83% 29.72 in 8.0 mi SW 13.8 mph - 0.02 in   Unknown
7:15 PM 68.0 °F - 66.2 °F 94% 29.75 in 5.0 mi SW 12.7 mph - 0.01 in   Unknown
7:35 PM 68.0 °F - 68.0 °F 100% 29.76 in 2.5 mi WSW 18.4 mph 23.0 mph 0.07 in   Unknown
7:55 PM 66.2 °F - 66.2 °F 100% 29.78 in 0.5 mi SW 18.4 mph 35.7 mph 0.21 in   Unknown
8:15 PM 66.2 °F - 66.2 °F 100% 29.76 in 10.0 mi SSW 11.5 mph - 0.02 in   Unknown
8:35 PM 66.2 °F - 66.2 °F 100% 29.74 in 10.0 mi South 11.5 mph - 0.02 in   Unknown
8:55 PM 68.0 °F - 68.0 °F 100% 29.77 in 10.0 mi SSE 13.8 mph 18.4 mph 0.02 in   Unknown
9:15 PM 66.2 °F - 66.2 °F 100% 29.77 in 10.0 mi South 12.7 mph - N/A   Unknown
9:35 PM 66.2 °F - 66.2 °F 100% 29.78 in 10.0 mi South 11.5 mph - N/A   Unknown
9:55 PM 68.0 °F - 68.0 °F 100% 29.79 in 10.0 mi SSW 10.4 mph - N/A   Unknown
10:15 PM 68.0 °F - 68.0 °F 100% 29.81 in 10.0 mi WSW 15.0 mph 26.5 mph N/A   Unknown
10:35 PM 68.0 °F - 66.2 °F 94% 29.81 in 10.0 mi WSW 16.1 mph - N/A   Unknown
10:55 PM 66.2 °F - 64.4 °F 94% 29.81 in 10.0 mi West 15.0 mph 19.6 mph N/A   Unknown
11:15 PM 66.2 °F - 60.8 °F 83% 29.82 in 10.0 mi West 13.8 mph - N/A   Unknown
11:35 PM 64.4 °F - 60.8 °F 88% 29.82 in 10.0 mi West 11.5 mph - N/A   Unknown